Tobias Bolanos International Airport
MRPV : now visible

Airfield :











YOU CAN JOIN US ON...

 
LOGIN :

Register | Disclaimer

   EN    FR    IT 

 









Legend :    VFR   Marginal VFR   IFR   Intensive IFR   Very Intensive IFR
Visi :
Ceiling :
>= 8 km
>= 3000ft
5 to 8 km
1000 to 3000 ft
1500m to 5 km
500 to 1000 ft
800 to 1500m
200 to 500 ft
< 800m
< 200 ft
Symbols :   Thunderstorms  Fog  Heavy snow  Heavy precipitations  Wind > 20 kt






- Airport Elevation : 3287 ft
- IATA code : SYQ


MRPV - Tobias Bolanos International

EXPIRED METARs :
  • 172350Z 31005KT 6000 BCFG OVC005 21/21 A2998 NOSIG
  • 172331Z 30007KT 6000 PRFG BKN005 21/21 A2997 NOSIG

TAF MRPV
Valid from the 18 at 00:00 until the 19 at 00:00 UTC


172300Z 1800/1824 32003KT 9999 SCT030 TX28/1818Z TN18/1810Z
TEMPO 1800/1804 5000 BR BKN010
TEMPO 1705/1715 12005KT
BECMG 1715/1717 29008KT
TEMPO 1720/1723 TSRA SCT015CB
MHTG FIR / North America



MET'MAP, your aeronautical weather chart ! - Copyright ORBIFLY December 2007 - Disclaimer

ORBIFLY MET'MAP TEAM :

Programming & Development : Alexandra Zaïnal
Concept & original design : Baudouin d'Aumeries
Assistance for programming : Marc-Olivier Méhu
Technical & hardware support : Manuel Goepfert

Contact : metmap@orbifly.com




SOURCES & CREDITS :

   NOAA       Earth
Advisory